| time (UTC) | temp C | wind direction | speed KPH | gust KPH | rain 1hr cm | rain 24hr cm | rain mn cm | humidity % | barometer mb |
| 20260505214040 | 18 | 259 | 11.3 | 25.7 | 0.00 | 0.00 | 0.00 | 35 | 1010.4 |
| 20260505213543 | 18 | 226 | 14.5 | 25.7 | 0.00 | 0.00 | 0.00 | 35 | 1010.6 |
| 20260505213042 | 18 | 227 | 8.0 | 24.1 | 0.00 | 0.00 | 0.00 | 35 | 1010.7 |
| 20260505212541 | 18 | 229 | 8.0 | 22.5 | 0.00 | 0.00 | 0.00 | 36 | 1010.7 |
| 20260505212043 | 17 | 267 | 6.4 | 22.5 | 0.00 | 0.00 | 0.00 | 37 | 1010.8 |
| 20260505211549 | 17 | 261 | 12.9 | 27.4 | 0.00 | 0.00 | 0.00 | 38 | 1010.9 |
| 20260505211042 | 17 | 222 | 12.9 | 29.0 | 0.00 | 0.00 | 0.00 | 39 | 1011.0 |
| 20260505210542 | 16 | 265 | 14.5 | 29.0 | 0.00 | 0.00 | 0.00 | 39 | 1011.1 |
| 20260505210050 | 16 | 227 | 16.1 | 29.0 | 0.00 | 0.00 | 0.00 | 39 | 1011.3 |
| 20260505205542 | 16 | 234 | 11.3 | 25.7 | 0.00 | 0.00 | 0.00 | 39 | 1011.2 |
| 20260505205042 | 17 | 238 | 14.5 | 30.6 | 0.00 | 0.00 | 0.00 | 39 | 1011.4 |
| 20260505204549 | 16 | 204 | 16.1 | 30.6 | 0.00 | 0.00 | 0.00 | 40 | 1011.6 |
| 20260505204042 | 16 | 190 | 16.1 | 25.7 | 0.00 | 0.00 | 0.00 | 41 | 1011.6 |
| 20260505203541 | 16 | 232 | 12.9 | 24.1 | 0.00 | 0.00 | 0.00 | 41 | 1011.8 |
| 20260505203054 | 15 | 236 | 11.3 | 25.7 | 0.00 | 0.00 | 0.00 | 42 | 1011.8 |
| 20260505202541 | 15 | 213 | 11.3 | 25.7 | 0.00 | 0.00 | 0.00 | 42 | 1012.1 |
| 20260505202041 | 15 | 275 | 12.9 | 25.7 | 0.00 | 0.00 | 0.00 | 44 | 1012.0 |
| 20260505201554 | 15 | 248 | 11.3 | 25.7 | 0.00 | 0.00 | 0.00 | 44 | 1012.0 |
| 20260505201041 | 15 | 300 | 12.9 | 24.1 | 0.00 | 0.00 | 0.00 | 46 | 1011.9 |
| 20260505200542 | 13 | 298 | 8.0 | 20.9 | 0.00 | 0.00 | 0.00 | 48 | 1012.0 |
| 20260505200057 | 13 | 242 | 11.3 | 25.7 | 0.00 | 0.00 | 0.00 | 49 | 1012.1 |
| 20260505195541 | 12 | 254 | 14.5 | 30.6 | 0.00 | 0.00 | 0.00 | 52 | 1012.2 |
| 20260505195041 | 12 | 254 | 16.1 | 30.6 | 0.00 | 0.00 | 0.00 | 54 | 1012.1 |
| 20260505194549 | 12 | 267 | 12.9 | 29.0 | 0.00 | 0.00 | 0.00 | 52 | 1012.0 |
| 20260505194041 | 13 | 253 | 14.5 | 32.2 | 0.00 | 0.00 | 0.00 | 50 | 1012.0 |
| 20260505193541 | 13 | 257 | 12.9 | 32.2 | 0.00 | 0.00 | 0.00 | 48 | 1012.0 |
| 20260505193045 | 13 | 267 | 16.1 | 29.0 | 0.00 | 0.00 | 0.00 | 49 | 1011.9 |
| 20260505192541 | 12 | 255 | 14.5 | 22.5 | 0.00 | 0.00 | 0.00 | 52 | 1011.9 |
| 20260505192041 | 12 | 217 | 12.9 | 22.5 | 0.00 | 0.00 | 0.00 | 52 | 1012.0 |
| 20260505191550 | 12 | 273 | 12.9 | 22.5 | 0.00 | 0.00 | 0.00 | 54 | 1012.0 |
| 20260505191040 | 12 | 286 | 12.9 | 24.1 | 0.00 | 0.00 | 0.00 | 54 | 1012.0 |
| 20260505190541 | 12 | 270 | 14.5 | 32.2 | 0.00 | 0.00 | 0.00 | 57 | 1012.1 |
| 20260505190048 | 12 | 285 | 11.3 | 33.8 | 0.00 | 0.00 | 0.00 | 57 | 1012.1 |
| 20260505185541 | 13 | 255 | 16.1 | 33.8 | 0.00 | 0.00 | 0.00 | 51 | 1012.1 |
| 20260505185041 | 14 | 200 | 14.5 | 29.0 | 0.00 | 0.00 | 0.00 | 45 | 1012.0 |
| 20260505184548 | 15 | 217 | 11.3 | 25.7 | 0.00 | 0.00 | 0.00 | 39 | 1011.7 |
| 20260505184042 | 15 | 238 | 12.9 | 30.6 | 0.00 | 0.00 | 0.00 | 38 | 1011.7 |
| 20260505183540 | 15 | 164 | 14.5 | 30.6 | 0.00 | 0.00 | 0.00 | 37 | 1011.7 |
| 20260505183104 | 15 | 251 | 9.7 | 22.5 | 0.00 | 0.00 | 0.00 | 36 | 1011.7 |
| 20260505182541 | 16 | 198 | 11.3 | 22.5 | 0.00 | 0.00 | 0.00 | 35 | 1011.8 |
| 20260505182043 | 16 | 170 | 8.0 | 19.3 | 0.00 | 0.00 | 0.00 | 34 | 1011.7 |
| 20260505181550 | 16 | 158 | 11.3 | 22.5 | 0.00 | 0.00 | 0.00 | 33 | 1011.7 |
| 20260505181046 | 16 | 190 | 8.0 | 22.5 | 0.00 | 0.00 | 0.00 | 33 | 1011.6 |
| 20260505180543 | 16 | 159 | 12.9 | 19.3 | 0.00 | 0.00 | 0.00 | 32 | 1011.7 |
| 20260505180052 | 16 | 194 | 6.4 | 14.5 | 0.00 | 0.00 | 0.00 | 32 | 1011.6 |
| 20260505175543 | 16 | 173 | 6.4 | 14.5 | 0.00 | 0.00 | 0.00 | 33 | 1011.7 |
| 20260505175043 | 16 | 0 | 6.4 | 16.1 | 0.00 | 0.00 | 0.00 | 34 | 1011.7 |
| 20260505174559 | 16 | 197 | 8.0 | 16.1 | 0.00 | 0.00 | 0.00 | 34 | 1011.8 |
| 20260505174044 | 16 | 190 | 3.2 | 16.1 | 0.00 | 0.00 | 0.00 | 34 | 1012.1 |
| 20260505173543 | 16 | 254 | 6.4 | 16.1 | 0.00 | 0.00 | 0.00 | 33 | 1012.2 |
| 20260505173054 | 16 | 226 | 8.0 | 14.5 | 0.00 | 0.00 | 0.00 | 34 | 1012.1 |
| 20260505172544 | 16 | 290 | 4.8 | 12.9 | 0.00 | 0.00 | 0.00 | 34 | 1012.0 |
| 20260505172046 | 15 | 254 | 6.4 | 12.9 | 0.00 | 0.00 | 0.00 | 34 | 1012.0 |
| 20260505171554 | 15 | 294 | 1.6 | 17.7 | 0.00 | 0.00 | 0.00 | 35 | 1012.2 |
| 20260505171044 | 15 | 221 | 8.0 | 17.7 | 0.00 | 0.00 | 0.00 | 35 | 1012.3 |
| 20260505170544 | 14 | 180 | 4.8 | 17.7 | 0.00 | 0.00 | 0.00 | 37 | 1012.4 |
| 20260505170049 | 13 | 157 | 8.0 | 17.7 | 0.00 | 0.00 | 0.00 | 38 | 1012.4 |
| 20260505165543 | 13 | 270 | 6.4 | 11.3 | 0.00 | 0.00 | 0.00 | 39 | 1012.5 |
| 20260505165044 | 12 | 199 | 3.2 | 16.1 | 0.00 | 0.00 | 0.00 | 40 | 1012.6 |
| 20260505164601 | 12 | 194 | 4.8 | 16.1 | 0.00 | 0.00 | 0.00 | 40 | 1012.7 |
| 20260505164043 | 12 | 238 | 8.0 | 17.7 | 0.00 | 0.00 | 0.00 | 41 | 1012.9 |
| 20260505163545 | 12 | 173 | 11.3 | 19.3 | 0.00 | 0.00 | 0.00 | 41 | 1012.8 |
| 20260505163049 | 12 | 221 | 9.7 | 19.3 | 0.00 | 0.00 | 0.00 | 42 | 1012.9 |
| 20260505162543 | 11 | 194 | 8.0 | 17.7 | 0.00 | 0.00 | 0.00 | 42 | 1012.9 |
| 20260505162043 | 11 | 222 | 9.7 | 17.7 | 0.00 | 0.00 | 0.00 | 43 | 1013.0 |
| 20260505161602 | 11 | 240 | 9.7 | 20.9 | 0.00 | 0.00 | 0.00 | 44 | 1012.9 |
| 20260505161043 | 11 | 210 | 8.0 | 20.9 | 0.00 | 0.00 | 0.00 | 44 | 1013.0 |
| 20260505160543 | 11 | 223 | 8.0 | 17.7 | 0.00 | 0.00 | 0.00 | 44 | 1013.1 |
| 20260505153108 | 11 | 284 | 8.0 | 19.3 | 0.00 | 0.00 | 0.00 | 44 | 1013.1 |
| 20260505152544 | 11 | 261 | 9.7 | 22.5 | 0.00 | 0.00 | 0.00 | 44 | 1013.2 |
| 20260505152042 | 11 | 267 | 11.3 | 22.5 | 0.00 | 0.00 | 0.00 | 44 | 1013.1 |
| 20260505151611 | 11 | 317 | 8.0 | 20.9 | 0.00 | 0.00 | 0.00 | 44 | 1013.1 |
| 20260505151043 | 11 | 278 | 9.7 | 17.7 | 0.00 | 0.00 | 0.00 | 45 | 1013.0 |
| 20260505150543 | 11 | 294 | 8.0 | 17.7 | 0.00 | 0.00 | 0.00 | 45 | 1013.0 |
| 20260505140542 | 11 | 288 | 8.0 | 24.1 | 0.00 | 0.00 | 0.00 | 46 | 1013.1 |
| 20260505140108 | 11 | 269 | 9.7 | 24.1 | 0.00 | 0.00 | 0.00 | 46 | 1013.1 |
| 20260505124550 | 10 | 281 | 6.4 | 22.5 | 0.00 | 0.00 | 0.00 | 48 | 1013.3 |
| 20260505124042 | 9 | 296 | 8.0 | 22.5 | 0.00 | 0.00 | 0.00 | 49 | 1013.3 |
| 20260505123542 | 9 | 297 | 12.9 | 24.1 | 0.00 | 0.00 | 0.00 | 49 | 1013.3 |
| 20260505123058 | 9 | 276 | 9.7 | 24.1 | 0.00 | 0.00 | 0.00 | 48 | 1013.1 |
| 20260505122542 | 8 | 275 | 11.3 | 24.1 | 0.00 | 0.00 | 0.00 | 46 | 1013.1 |
| 20260505122042 | 8 | 283 | 4.8 | 11.3 | 0.00 | 0.00 | 0.00 | 44 | 1013.1 |
| 20260505121543 | 8 | 307 | 4.8 | 11.3 | 0.00 | 0.00 | 0.00 | 44 | 1012.8 |
| 20260505121042 | 9 | 302 | 3.2 | 6.4 | 0.00 | 0.00 | 0.00 | 43 | 1012.9 |
| 20260505120542 | 9 | 317 | 1.6 | 8.0 | 0.00 | 0.00 | 0.00 | 43 | 1012.9 |
| 20260505120054 | 9 | 317 | 3.2 | 8.0 | 0.00 | 0.00 | 0.00 | 42 | 1012.8 |
| 20260505115542 | 9 | 297 | 0.0 | 4.8 | 0.00 | 0.00 | 0.00 | 42 | 1012.6 |
| 20260505115043 | 9 | 297 | 0.0 | 3.2 | 0.00 | 0.00 | 0.00 | 41 | 1012.7 |
| 20260505114559 | 9 | 0 | 0.0 | 8.0 | 0.00 | 0.00 | 0.00 | 42 | 1012.7 |
| 20260505114043 | 10 | 297 | 1.6 | 9.7 | 0.00 | 0.00 | 0.00 | 42 | 1012.8 |
| 20260505113546 | 10 | 304 | 3.2 | 14.5 | 0.00 | 0.00 | 0.00 | 41 | 1013.0 |
| 20260505113111 | 10 | 280 | 3.2 | 14.5 | 0.00 | 0.00 | 0.00 | 41 | 1013.0 |
| 20260505112542 | 10 | 292 | 6.4 | 14.5 | 0.00 | 0.00 | 0.00 | 41 | 1013.0 |
| 20260505112042 | 10 | 284 | 8.0 | 14.5 | 0.00 | 0.00 | 0.00 | 42 | 1012.8 |
| 20260505111551 | 10 | 294 | 6.4 | 14.5 | 0.00 | 0.00 | 0.00 | 42 | 1012.7 |
| 20260505111042 | 10 | 273 | 4.8 | 12.9 | 0.00 | 0.00 | 0.00 | 41 | 1012.8 |
| 20260505110542 | 10 | 274 | 4.8 | 12.9 | 0.00 | 0.00 | 0.00 | 41 | 1012.8 |
| 20260505102042 | 10 | 277 | 3.2 | 8.0 | 0.00 | 0.00 | 0.00 | 39 | 1012.8 |
| 20260505101555 | 10 | 245 | 3.2 | 9.7 | 0.00 | 0.00 | 0.00 | 38 | 1012.7 |
| 20260505101042 | 10 | 259 | 3.2 | 9.7 | 0.00 | 0.00 | 0.00 | 38 | 1012.6 |
| 20260505100542 | 10 | 270 | 3.2 | 4.8 | 0.00 | 0.00 | 0.00 | 38 | 1012.5 |
| 20260505100047 | 11 | 298 | 1.6 | 9.7 | 0.00 | 0.00 | 0.00 | 38 | 1012.6 |
| 20260505095542 | 11 | 286 | 3.2 | 11.3 | 0.00 | 0.00 | 0.00 | 37 | 1012.5 |
| 20260505095046 | 11 | 294 | 3.2 | 17.7 | 0.00 | 0.00 | 0.00 | 37 | 1012.6 |
| 20260505094549 | 11 | 287 | 6.4 | 19.3 | 0.00 | 0.00 | 0.00 | 37 | 1012.6 |
| 20260505094042 | 11 | 277 | 9.7 | 20.9 | 0.00 | 0.00 | 0.00 | 37 | 1012.6 |
| 20260505093542 | 11 | 277 | 9.7 | 20.9 | 0.00 | 0.00 | 0.00 | 37 | 1012.7 |
| 20260505093058 | 11 | 270 | 12.9 | 20.9 | 0.00 | 0.00 | 0.00 | 37 | 1012.7 |
| 20260505092542 | 11 | 284 | 8.0 | 19.3 | 0.00 | 0.00 | 0.00 | 38 | 1012.7 |
| 20260505092042 | 11 | 275 | 4.8 | 11.3 | 0.00 | 0.00 | 0.00 | 38 | 1012.7 |
| 20260505091600 | 11 | 296 | 4.8 | 12.9 | 0.00 | 0.00 | 0.00 | 38 | 1012.7 |
| 20260505091043 | 11 | 287 | 4.8 | 16.1 | 0.00 | 0.00 | 0.00 | 38 | 1012.8 |
| 20260505090541 | 11 | 284 | 6.4 | 17.7 | 0.00 | 0.00 | 0.00 | 38 | 1012.8 |
| 20260505090048 | 11 | 286 | 6.4 | 17.7 | 0.00 | 0.00 | 0.00 | 38 | 1012.8 |
| 20260505085543 | 11 | 288 | 9.7 | 19.3 | 0.00 | 0.00 | 0.00 | 37 | 1012.7 |
| 20260505085042 | 11 | 298 | 9.7 | 19.3 | 0.00 | 0.00 | 0.00 | 37 | 1012.8 |
| 20260505084554 | 11 | 302 | 8.0 | 16.1 | 0.00 | 0.00 | 0.00 | 36 | 1012.9 |
| 20260505084043 | 11 | 318 | 4.8 | 12.9 | 0.00 | 0.00 | 0.00 | 36 | 1013.0 |
| 20260505083542 | 11 | 306 | 4.8 | 12.9 | 0.00 | 0.00 | 0.00 | 35 | 1013.1 |
| 20260505083100 | 11 | 296 | 1.6 | 4.8 | 0.00 | 0.00 | 0.00 | 35 | 1013.1 |
| 20260505082542 | 11 | 272 | 1.6 | 4.8 | 0.00 | 0.00 | 0.00 | 35 | 1013.3 |
| 20260505082043 | 11 | 272 | 1.6 | 11.3 | 0.00 | 0.00 | 0.00 | 35 | 1013.5 |
| 20260505081546 | 11 | 272 | 1.6 | 11.3 | 0.00 | 0.00 | 0.00 | 34 | 1013.6 |
| 20260505081046 | 12 | 262 | 4.8 | 11.3 | 0.00 | 0.00 | 0.00 | 34 | 1013.7 |
| 20260505080542 | 12 | 281 | 1.6 | 6.4 | 0.00 | 0.00 | 0.00 | 33 | 1013.6 |
| 20260505080056 | 12 | 281 | 1.6 | 8.0 | 0.00 | 0.00 | 0.00 | 33 | 1013.6 |
| 20260505075542 | 12 | 281 | 3.2 | 12.9 | 0.00 | 0.00 | 0.00 | 33 | 1013.5 |
| 20260505075043 | 12 | 311 | 4.8 | 12.9 | 0.00 | 0.00 | 0.00 | 33 | 1013.5 |
| 20260505074548 | 12 | 302 | 6.4 | 12.9 | 0.00 | 0.00 | 0.00 | 32 | 1013.6 |
| 20260505074043 | 12 | 313 | 4.8 | 8.0 | 0.00 | 0.00 | 0.00 | 32 | 1013.6 |
| 20260505073543 | 12 | 297 | 3.2 | 9.7 | 0.00 | 0.00 | 0.00 | 32 | 1013.6 |
| 20260505073106 | 13 | 319 | 4.8 | 14.5 | 0.00 | 0.00 | 0.00 | 31 | 1013.3 |
| 20260505072543 | 13 | 306 | 6.4 | 19.3 | 0.00 | 0.00 | 0.00 | 31 | 1013.2 |
| 20260505072043 | 13 | 328 | 9.7 | 19.3 | 0.00 | 0.00 | 0.00 | 31 | 1013.0 |
| 20260505071600 | 13 | 322 | 4.8 | 17.7 | 0.00 | 0.00 | 0.00 | 31 | 1013.1 |
| 20260505071045 | 13 | 301 | 8.0 | 20.9 | 0.00 | 0.00 | 0.00 | 30 | 1013.0 |
| 20260505070545 | 13 | 298 | 9.7 | 20.9 | 0.00 | 0.00 | 0.00 | 30 | 1013.0 |
| 20260505070100 | 13 | 309 | 11.3 | 29.0 | 0.00 | 0.00 | 0.00 | 30 | 1013.1 |
| 20260505065544 | 13 | 313 | 12.9 | 29.0 | 0.00 | 0.00 | 0.00 | 30 | 1013.2 |
| 20260505065042 | 13 | 309 | 12.9 | 25.7 | 0.00 | 0.00 | 0.00 | 30 | 1013.3 |
| 20260505064551 | 13 | 317 | 12.9 | 25.7 | 0.00 | 0.00 | 0.00 | 30 | 1013.1 |
| 20260505064047 | 13 | 295 | 11.3 | 24.1 | 0.00 | 0.00 | 0.00 | 30 | 1013.0 |
| 20260505063543 | 13 | 290 | 12.9 | 24.1 | 0.00 | 0.00 | 0.00 | 30 | 1013.0 |
| 20260505063054 | 13 | 314 | 8.0 | 17.7 | 0.00 | 0.00 | 0.00 | 31 | 1013.0 |
| 20260505062542 | 13 | 290 | 9.7 | 20.9 | 0.00 | 0.00 | 0.00 | 31 | 1013.0 |
| 20260505062043 | 13 | 264 | 9.7 | 20.9 | 0.00 | 0.00 | 0.00 | 31 | 1013.0 |
| 20260505061601 | 13 | 286 | 9.7 | 20.9 | 0.00 | 0.00 | 0.00 | 31 | 1013.0 |
| 20260505061043 | 13 | 273 | 8.0 | 17.7 | 0.00 | 0.00 | 0.00 | 31 | 1012.8 |
| 20260505060543 | 13 | 287 | 3.2 | 17.7 | 0.00 | 0.00 | 0.00 | 31 | 1012.9 |
| 20260505060055 | 14 | 284 | 6.4 | 17.7 | 0.00 | 0.00 | 0.00 | 31 | 1012.8 |
| 20260505055543 | 14 | 269 | 9.7 | 20.9 | 0.00 | 0.00 | 0.00 | 31 | 1013.0 |
| 20260505055043 | 14 | 281 | 8.0 | 20.9 | 0.00 | 0.00 | 0.00 | 31 | 1013.0 |
| 20260505054555 | 14 | 259 | 11.3 | 24.1 | 0.00 | 0.00 | 0.00 | 31 | 1012.9 |
| 20260505054042 | 14 | 257 | 11.3 | 24.1 | 0.00 | 0.00 | 0.00 | 31 | 1012.7 |
| 20260505053542 | 14 | 276 | 12.9 | 20.9 | 0.00 | 0.00 | 0.00 | 31 | 1012.7 |
| 20260505053058 | 14 | 273 | 8.0 | 24.1 | 0.00 | 0.00 | 0.00 | 31 | 1012.7 |
| 20260505052543 | 14 | 263 | 12.9 | 24.1 | 0.00 | 0.00 | 0.00 | 31 | 1012.7 |
| 20260505052043 | 14 | 258 | 8.0 | 14.5 | 0.00 | 0.00 | 0.00 | 32 | 1012.8 |
| 20260505051602 | 14 | 263 | 4.8 | 14.5 | 0.00 | 0.00 | 0.00 | 32 | 1012.7 |
| 20260505051045 | 14 | 280 | 4.8 | 16.1 | 0.00 | 0.00 | 0.00 | 32 | 1012.6 |
| 20260505050542 | 14 | 259 | 8.0 | 16.1 | 0.00 | 0.00 | 0.00 | 32 | 1012.7 |
| 20260505050103 | 14 | 271 | 4.8 | 16.1 | 0.00 | 0.00 | 0.00 | 32 | 1012.8 |
| 20260505041547 | 15 | 0 | 0.0 | 4.8 | 0.00 | 0.00 | 0.00 | 30 | 1012.9 |
| 20260505041043 | 15 | 0 | 0.0 | 6.4 | 0.00 | 0.00 | 0.00 | 29 | 1013.0 |
| 20260505040543 | 15 | 342 | 3.2 | 6.4 | 0.00 | 0.00 | 0.00 | 29 | 1012.9 |
| 20260505040050 | 15 | 336 | 3.2 | 9.7 | 0.00 | 0.00 | 0.00 | 29 | 1013.0 |
| 20260505035543 | 15 | 331 | 3.2 | 12.9 | 0.00 | 0.00 | 0.00 | 29 | 1013.0 |
| 20260505035042 | 15 | 309 | 6.4 | 12.9 | 0.00 | 0.00 | 0.00 | 29 | 1013.0 |
| 20260505034552 | 15 | 313 | 6.4 | 12.9 | 0.00 | 0.00 | 0.00 | 29 | 1013.0 |
| 20260505034043 | 15 | 309 | 4.8 | 12.9 | 0.00 | 0.00 | 0.00 | 28 | 1013.0 |
| 20260505033544 | 15 | 306 | 4.8 | 14.5 | 0.00 | 0.00 | 0.00 | 28 | 1012.9 |
| 20260505033049 | 15 | 311 | 4.8 | 17.7 | 0.00 | 0.00 | 0.00 | 27 | 1012.9 |
| 20260505032543 | 15 | 316 | 8.0 | 17.7 | 0.00 | 0.00 | 0.00 | 27 | 1012.8 |
| 20260505032048 | 15 | 314 | 6.4 | 16.1 | 0.00 | 0.00 | 0.00 | 27 | 1012.8 |
| 20260505031553 | 16 | 286 | 4.8 | 16.1 | 0.00 | 0.00 | 0.00 | 26 | 1012.7 |
| 20260505031043 | 16 | 309 | 6.4 | 14.5 | 0.00 | 0.00 | 0.00 | 26 | 1012.5 |
| 20260505030544 | 16 | 293 | 6.4 | 16.1 | 0.00 | 0.00 | 0.00 | 25 | 1012.5 |
| 20260505030047 | 16 | 313 | 8.0 | 20.9 | 0.00 | 0.00 | 0.00 | 25 | 1012.4 |
| 20260505025543 | 16 | 293 | 12.9 | 20.9 | 0.00 | 0.00 | 0.00 | 25 | 1012.3 |
| 20260505025043 | 16 | 307 | 11.3 | 25.7 | 0.00 | 0.00 | 0.00 | 25 | 1012.3 |
| 20260505024627 | 16 | 304 | 12.9 | 25.7 | 0.00 | 0.00 | 0.00 | 25 | 1012.2 |
| 20260505024043 | 16 | 309 | 12.9 | 25.7 | 0.00 | 0.00 | 0.00 | 24 | 1012.2 |
| 20260505023543 | 16 | 285 | 9.7 | 24.1 | 0.00 | 0.00 | 0.00 | 24 | 1012.1 |
| 20260505023055 | 16 | 315 | 9.7 | 22.5 | 0.00 | 0.00 | 0.00 | 24 | 1012.1 |
| 20260505022544 | 16 | 288 | 11.3 | 25.7 | 0.00 | 0.00 | 0.00 | 23 | 1012.0 |
| 20260505022043 | 16 | 300 | 12.9 | 25.7 | 0.00 | 0.00 | 0.00 | 23 | 1012.0 |
| 20260505021549 | 16 | 282 | 11.3 | 22.5 | 0.00 | 0.00 | 0.00 | 23 | 1011.9 |
| 20260505021042 | 16 | 250 | 11.3 | 25.7 | 0.00 | 0.00 | 0.00 | 22 | 1012.0 |
| 20260505020542 | 17 | 307 | 12.9 | 25.7 | 0.00 | 0.00 | 0.00 | 22 | 1012.0 |
| 20260505020053 | 17 | 284 | 16.1 | 25.7 | 0.00 | 0.00 | 0.00 | 21 | 1012.0 |
| 20260505015543 | 17 | 313 | 11.3 | 25.7 | 0.00 | 0.00 | 0.00 | 21 | 1012.0 |
| 20260505015045 | 17 | 288 | 11.3 | 29.0 | 0.00 | 0.00 | 0.00 | 21 | 1012.0 |
| 20260505014553 | 17 | 286 | 12.9 | 30.6 | 0.00 | 0.00 | 0.00 | 21 | 1012.0 |
| 20260505014046 | 17 | 297 | 14.5 | 30.6 | 0.00 | 0.00 | 0.00 | 20 | 1012.0 |
| 20260505013544 | 17 | 286 | 17.7 | 29.0 | 0.00 | 0.00 | 0.00 | 20 | 1011.9 |
| 20260505013102 | 17 | 285 | 11.3 | 22.5 | 0.00 | 0.00 | 0.00 | 20 | 1011.7 |
| 20260505012546 | 17 | 306 | 8.0 | 25.7 | 0.00 | 0.00 | 0.00 | 20 | 1011.6 |
| 20260505012044 | 17 | 302 | 11.3 | 25.7 | 0.00 | 0.00 | 0.00 | 19 | 1011.6 |
| 20260505011601 | 18 | 310 | 12.9 | 24.1 | 0.00 | 0.00 | 0.00 | 19 | 1011.6 |
| 20260505011042 | 18 | 268 | 12.9 | 30.6 | 0.00 | 0.00 | 0.00 | 19 | 1011.6 |
| 20260505010542 | 18 | 260 | 12.9 | 30.6 | 0.00 | 0.00 | 0.00 | 19 | 1011.6 |
| 20260505010107 | 18 | 298 | 16.1 | 30.6 | 0.00 | 0.00 | 0.00 | 19 | 1011.6 |
| 20260505005543 | 18 | 272 | 14.5 | 32.2 | 0.00 | 0.00 | 0.00 | 19 | 1011.7 |
| 20260505005043 | 18 | 288 | 16.1 | 32.2 | 0.00 | 0.00 | 0.00 | 18 | 1011.8 |
| 20260505004552 | 18 | 279 | 19.3 | 32.2 | 0.00 | 0.00 | 0.00 | 18 | 1011.8 |
| 20260505004042 | 18 | 300 | 12.9 | 30.6 | 0.00 | 0.00 | 0.00 | 18 | 1011.8 |
| 20260505003546 | 18 | 293 | 17.7 | 30.6 | 0.00 | 0.00 | 0.00 | 18 | 1011.9 |
| 20260505003056 | 18 | 285 | 12.9 | 41.8 | 0.00 | 0.00 | 0.00 | 18 | 1011.9 |
| 20260505002543 | 18 | 268 | 14.5 | 41.8 | 0.00 | 0.00 | 0.00 | 18 | 1011.8 |
| 20260505002043 | 18 | 286 | 16.1 | 33.8 | 0.00 | 0.00 | 0.00 | 18 | 1011.8 |
| 20260505001550 | 18 | 322 | 17.7 | 30.6 | 0.00 | 0.00 | 0.00 | 18 | 1011.7 |
| 20260505001042 | 19 | 279 | 16.1 | 30.6 | 0.00 | 0.00 | 0.00 | 18 | 1011.7 |
| 20260505000543 | 19 | 262 | 11.3 | 32.2 | 0.00 | 0.00 | 0.00 | 18 | 1011.9 |
| 20260505000058 | 19 | 292 | 14.5 | 32.2 | 0.00 | 0.00 | 0.00 | 18 | 1012.0 |
| 20260504235543 | 19 | 266 | 14.5 | 29.0 | 0.00 | 0.00 | 0.00 | 18 | 1012.0 |
| 20260504235043 | 19 | 274 | 12.9 | 27.4 | 0.00 | 0.00 | 0.00 | 19 | 1012.0 |
| 20260504234549 | 19 | 293 | 12.9 | 30.6 | 0.00 | 0.00 | 0.00 | 19 | 1012.0 |
| 20260504234043 | 19 | 260 | 12.9 | 32.2 | 0.00 | 0.00 | 0.00 | 18 | 1012.0 |
| 20260504233543 | 19 | 289 | 17.7 | 32.2 | 0.00 | 0.00 | 0.00 | 19 | 1012.0 |
| 20260504233104 | 20 | 328 | 17.7 | 32.2 | 0.00 | 0.00 | 0.00 | 19 | 1012.0 |
| 20260504232542 | 20 | 270 | 12.9 | 33.8 | 0.00 | 0.00 | 0.00 | 19 | 1012.0 |
| 20260504232042 | 20 | 276 | 17.7 | 33.8 | 0.00 | 0.00 | 0.00 | 18 | 1012.0 |
| 20260504231550 | 20 | 331 | 14.5 | 29.0 | 0.00 | 0.00 | 0.00 | 18 | 1011.9 |
| 20260504231043 | 20 | 295 | 11.3 | 30.6 | 0.00 | 0.00 | 0.00 | 19 | 1012.0 |
| 20260504230546 | 20 | 276 | 14.5 | 32.2 | 0.00 | 0.00 | 0.00 | 19 | 1012.1 |
| 20260504230053 | 20 | 301 | 19.3 | 32.2 | 0.00 | 0.00 | 0.00 | 19 | 1012.2 |
| 20260504225543 | 20 | 276 | 9.7 | 30.6 | 0.00 | 0.00 | 0.00 | 19 | 1012.3 |
| 20260504225042 | 20 | 288 | 16.1 | 30.6 | 0.00 | 0.00 | 0.00 | 19 | 1012.2 |
| 20260504224549 | 20 | 274 | 14.5 | 33.8 | 0.00 | 0.00 | 0.00 | 19 | 1012.2 |
| 20260504224043 | 20 | 290 | 19.3 | 33.8 | 0.00 | 0.00 | 0.00 | 19 | 1012.4 |
| 20260504223543 | 20 | 286 | 14.5 | 30.6 | 0.00 | 0.00 | 0.00 | 19 | 1012.4 |
| 20260504223058 | 20 | 321 | 14.5 | 30.6 | 0.00 | 0.00 | 0.00 | 19 | 1012.3 |
| 20260504222543 | 20 | 259 | 17.7 | 30.6 | 0.00 | 0.00 | 0.00 | 18 | 1012.4 |
| 20260504222042 | 20 | 288 | 12.9 | 30.6 | 0.00 | 0.00 | 0.00 | 17 | 1012.6 |
| 20260504221552 | 20 | 269 | 14.5 | 33.8 | 0.00 | 0.00 | 0.00 | 17 | 1012.6 |
| 20260504221042 | 20 | 310 | 16.1 | 33.8 | 0.00 | 0.00 | 0.00 | 17 | 1012.8 |
| 20260504220542 | 20 | 271 | 9.7 | 32.2 | 0.00 | 0.00 | 0.00 | 17 | 1012.6 |
| 20260504220056 | 20 | 286 | 19.3 | 32.2 | 0.00 | 0.00 | 0.00 | 16 | 1012.8 |
| 20260504215543 | 21 | 265 | 16.1 | 29.0 | 0.00 | 0.00 | 0.00 | 16 | 1013.0 |
| 20260504215042 | 21 | 298 | 17.7 | 29.0 | 0.00 | 0.00 | 0.00 | 16 | 1013.0 |
| 20260504214614 | 21 | 292 | 14.5 | 27.4 | 0.00 | 0.00 | 0.00 | 15 | 1013.0 |